562  
NZUS43 KILX 231110  
HWRCRS  
 
NWR HOURLY WEATHER ROUNDUP  
NATIONAL WEATHER SERVICE LINCOLN IL  
600 AM CDT SUN APR 23 2017  
 
 
CITY SKY/WX TMP DP RH WIND PRES REMARKS
 
CHAMPAIGN CLEAR 37 27 67 N9 30.10S WCI 30  
LAWRENCEVILLE CLEAR 43 35 73 NE10 30.03R  
PEORIA CLEAR 36 32 85 CALM 30.15R  
SPRINGFIELD CLEAR 37 30 75 N5 30.12R WCI 33  

 
 
 
CITY SKY/WX TMP DP RH WIND PRES REMARKS
 
BLOOMINGTON CLEAR 36 26 67 NE10 30.14R WCI 28  
DANVILLE CLEAR 35 30 83 N8 30.08R WCI 28  
DECATUR CLEAR 37 29 72 N8 30.10S WCI 31  
EFFINGHAM CLEAR 41 33 72 N5 30.07R  
FLORA CLEAR 41 36 81 N7 30.04S  
GALESBURG CLEAR 33 31 90 CALM 30.15R  
JACKSONVILLE CLEAR 35 30 82 N6 30.13R WCI 30  
LACON CLEAR 34 31 88 CALM 30.15R  
LA SALLE CLEAR 36 28 70 N7 30.16R WCI 31  
LINCOLN CLEAR 41 28 60 N5 30.13R  
LITCHFIELD CLEAR 37 30 77 N8 30.08S WCI 30  
 
CITY SKY/WX TMP DP RH WIND PRES REMARKS
 
MACOMB CLEAR 34 29 80 NW6 30.17R WCI 29  
MATTOON CLEAR 35 31 85 N8 30.07R WCI 29  
MOLINE CLEAR 36 32 85 CALM 30.15S  
OLNEY CLEAR 42 37 80 N8 30.04R  
PARIS CLEAR 38 32 77 N7 30.08S WCI 33  
PONTIAC CLEAR 36 30 79 CALM 30.16R  
QUINCY CLEAR 37 29 72 N7 30.14R WCI 32  
RANTOUL CLEAR 40 30 68 N6 30.11S  
ROBINSON CLEAR 40 34 79 NE10 30.05R WCI 34  
TAYLORVILLE CLEAR 36 29 76 N7 30.10S WCI 30  
TERRE HAUTE CLEAR 38 31 76 N3 30.06R  

 
 
 
CITY SKY/WX TMP DP RH WIND PRES REMARKS
 
BURLINGTON CLEAR 37 34 89 N5 30.15R WCI 33  
CHICAGO PTCLDY 39 29 67 W3 30.13S  
DES MOINES CLEAR 45 30 55 SW3 30.15F  
EVANSVILLE CLEAR 47 37 68 N12 29.97R  
INDIANAPOLIS CLEAR 41 32 70 NE12 30.06R WCI 34  
KANSAS CITY CLEAR 44 30 57 N3 30.16S  
MILWAUKEE CLEAR 47 24 40 SW3 30.11S  
ST LOUIS NOT AVBL  

 
 
 
 
CLICK HERE TO GO TO PREVIOUS BULLETINS.

The Nexlab IL Page Main Text Page

The Nexlab IL Page Main Text Page